This demonstration page uses our WeatherBlox Daily Observations layout. Learn more.

Left ArrowRight Arrow

39.01783, -85.05884

Hourly Observations for July 7, 2020

Temp ( °F °C ) Dew Point ( °F °C ) Humidity (%) Winds ( mph kmh ) Pressure ( in mb ) Visibility ( mi km ) Precip ( " mm )
12:52 am 00:52 Mostly Clear 72 22.2 69 20.6 91 91 Calm 29.99 1016 7 11 0.00 0.00
1:52 am 01:52 Mostly Clear 70 21.1 68 20 93 93 SE 3 6 29.99 1016 7 11 0.00 0.00
2:52 am 02:52 Mostly Cloudy 73 22.8 68 20 84 84 SE 3 6 29.99 1016 9 14 0.00 0.00
3:52 am 03:52 Mostly Clear 69 20.6 67 19.4 93 93 SE 6 9 29.97 1015 7 11 0.00 0.00
4:52 am 04:52 Mostly Cloudy 71 21.7 67 19.4 87 87 Calm 29.97 1015 7 11 0.00 0.00
5:52 am 05:52 Mostly Clear 70 21.1 67 19.4 90 90 Calm 29.97 1015 8 13 0.00 0.00
6:52 am 06:52 Partly Cloudy 69 20.6 66 18.9 90 90 Calm 29.99 1016 7 11 0.00 0.00
7:52 am 07:52 Mostly Sunny 73 22.8 68 20 84 84 S 5 7 29.99 1016 7 11 0.00 0.00
8:52 am 08:52 Mostly Sunny 76 24.4 69 20.6 79 79 SSE 5 7 30.00 1016 9 14 0.00 0.00
9:52 am 09:52 Partly Cloudy 80 26.7 68 20 67 67 SW 5 7 30.01 1016 8 13 0.00 0.00
10:52 am 10:52 Mostly Cloudy 82 27.8 69 20.6 65 65 SW 5 7 30.02 1017 8 13 0.00 0.00
11:52 am 11:52 Partly Cloudy 85 29.4 69 20.6 59 59 Calm 30.01 1016 9 14 0.00 0.00
12:52 pm 12:52 Partly Cloudy 87 30.6 72 22.2 61 61 Calm 30.01 1016 8 13 0.00 0.00
1:52 pm 13:52 Partly Cloudy 88 31.1 70 21.1 55 55 VRB 3 6 29.98 1015 8 13 0.00 0.00
2:52 pm 14:52 Partly Cloudy 90 32.2 70 21.1 52 52 W 8 13 29.96 1015 8 13 0.00 0.00
3:52 pm 15:52 Mostly Cloudy 89 31.7 70 21.1 53 53 N 10 17 29.94 1014 8 13 0.00 0.00
4:52 pm 16:52 Partly Cloudy 90 32.2 70 21.1 52 52 N 9 15 29.93 1014 8 13 0.00 0.00
5:52 pm 17:52 Partly Cloudy 89 31.7 71 21.7 55 55 N 10 17 29.93 1013 8 13 0.00 0.00
6:19 pm 18:19 Partly Cloudy with Thunderstorms 86 30 68 20 55 55 NNW 9 15 29.90 1012 8 13 0.00 0.00
6:52 pm 18:52 Mostly Cloudy with Thunderstorms 84 28.9 68 20 59 59 SW 6 9 29.92 1013 9 14 0.00 0.00
7:05 pm 19:05 Mostly Cloudy 85 29.4 69 20.6 59 59 WSW 3 6 29.90 1012 8 13 0.00 0.00
7:52 pm 19:52 Partly Cloudy 86 30 71 21.7 61 61 N 9 15 29.92 1013 8 13 0.00 0.00
8:52 pm 20:52 Partly Cloudy 84 28.9 69 20.6 61 61 ENE 8 13 29.92 1013 8 13 0.00 0.00
9:52 pm 21:52 Mostly Clear 81 27.2 68 20 65 65 E 8 13 29.94 1014 9 14 0.00 0.00
10:52 pm 22:52 Mostly Clear 80 26.7 68 20 67 67 E 7 11 29.96 1014 10 16 0.00 0.00
11:52 pm 23:52 Mostly Clear 78 25.6 68 20 71 71 E 5 7 29.96 1015 10 16 0.00 0.00

Powered by AerisWeather